Home   Weather   Cardiff   Past weeks
Flag for United Kingdom

Past Weather in Cardiff, Wales, United Kingdom — Yesterday and Last 2 Weeks

Now
50 °F

Passing clouds.


Feels Like: 47 °F
Forecast: N/A
Wind: 8 mph from South

Location: Wales Airport

Current Time: Dec 17, 2018 at 4:58:00 pm

Latest Report: Dec 17, 2018 at 4:20 pm


Visibility: N/A

Pressure: 29.98 "Hg

Humidity: 94%

Dew Point: 48 °F

Location of CardiffLocation

Past Weather in Cardiff — Graph

°F

Cardiff Temperature Yesterday

Maximum temperature yesterday: 48 °F (at 1:50 am)
Minimum temperature yesterday: 41 °F (at 10:50 pm)
Average temperature yesterday: 45 °F

High & Low Weather Summary for the Past Weeks

 TemperatureHumidityPressure
High55 °F (Dec 2, 3:20 pm)100% (Dec 2, 4:20 pm)30.39 "Hg (Dec 2, 4:20 pm)
Low34 °F (Dec 4, 7:20 am)66% (Dec 7, 2:20 pm)29.42 "Hg (Dec 3, 6:20 am)
Average46 °F90%29.90 "Hg
* Reported Dec 2 3:20 pm — Dec 17 3:50 pm, Cardiff. Weather by CustomWeather, © 2018

Note: Actual official high and low records may vary slightly from our data, if they occured in-between our weather recording intervals... More about our weather records

Advertising

Cardiff Weather History for the Previous 24 Hours

Scroll right to see more
 ConditionsComfort  
Time TempWeatherWind HumidityBarometerVisibility
3:50 pm
Mon, Dec 17
50 °FScattered clouds.7 mph94%30.01 "HgN/A
3:20 pm50 °FCool.6 mph88%29.98 "HgN/A
2:50 pm50 °FScattered clouds.8 mph88%29.98 "HgN/A
2:20 pm48 °FCool.7 mph94%29.98 "HgN/A
1:50 pm48 °FCool.8 mph94%30.01 "HgN/A
1:20 pm48 °FScattered clouds.8 mph94%30.01 "HgN/A
12:50 pm48 °FScattered clouds.9 mph94%30.01 "HgN/A
12:20 pm50 °FScattered clouds.5 mph88%30.01 "HgN/A
11:50 am48 °FCool.5 mph94%30.01 "HgN/A
11:20 am48 °FPassing clouds.7 mph94%30.01 "HgN/A
10:50 am48 °FCool.6 mph87%30.01 "HgN/A
10:20 am48 °FCool.6 mph94%30.01 "HgN/A
9:50 am46 °FCool.5 mph93%30.01 "HgN/A
9:20 am46 °FCool.7 mph93%30.01 "HgN/A
8:50 am45 °FQuite cool.9 mph100%30.01 "HgN/A
8:20 am46 °FCool.10 mph87%29.98 "HgN/A
7:50 am46 °FCool.10 mph93%29.98 "HgN/A
7:20 am45 °FPassing clouds.10 mph100%29.98 "HgN/A
6:50 am46 °FCool.12 mph93%29.95 "HgN/A
6:20 am46 °FPassing clouds.9 mph93%29.95 "HgN/A
5:50 am45 °FPassing clouds.7 mph93%29.95 "HgN/A
5:20 am45 °FPassing clouds.9 mph93%29.92 "HgN/A
4:50 am45 °FQuite cool.8 mph93%29.92 "HgN/A
4:20 am45 °FPassing clouds.9 mph93%29.92 "HgN/A
3:50 am43 °FQuite cool.7 mph100%29.89 "HgN/A
3:20 am45 °FPartly cloudy.8 mph93%29.89 "HgN/A
2:50 am45 °FPassing clouds.8 mph93%29.89 "HgN/A
2:20 am43 °FPartly cloudy.8 mph100%29.86 "HgN/A
1:50 am41 °FPartly cloudy.7 mph100%29.86 "HgN/A
12:50 am43 °FPassing clouds.6 mph100%29.83 "HgN/A
12:20 am43 °FPassing clouds.7 mph93%29.80 "HgN/A
11:50 pm
Sun, Dec 16
43 °FPassing clouds.7 mph93%29.80 "HgN/A
11:20 pm41 °FPassing clouds.7 mph100%29.80 "HgN/A
10:50 pm41 °FQuite cool.7 mph100%29.77 "HgN/A
10:20 pm43 °FPassing clouds.9 mph100%29.77 "HgN/A
9:50 pm43 °FQuite cool.12 mph100%29.74 "HgN/A
9:20 pm45 °FQuite cool.12 mph93%29.71 "HgN/A
8:50 pm45 °FQuite cool.15 mph93%29.71 "HgN/A
8:20 pm46 °FCool.17 mph87%29.68 "HgN/A
7:50 pm46 °FPassing clouds.16 mph87%29.68 "HgN/A
7:20 pm46 °FPartly cloudy.17 mph93%29.65 "HgN/A
6:50 pm45 °FLight rain. Partly cloudy.16 mph100%29.65 "HgN/A
6:20 pm45 °FPassing clouds.6 mph100%29.62 "HgN/A
5:50 pm45 °FPartly cloudy.3 mph100%29.62 "HgN/A
5:20 pm45 °FDrizzle. Mostly cloudy.5 mph100%29.59 "Hg2 mi
4:50 pm45 °FLight rain. Mostly cloudy.5 mph100%29.59 "HgN/A
4:20 pm45 °FLight rain. Passing clouds.8 mph93%29.59 "HgN/A
Weather by CustomWeather, © 2018

See weather overview